Regional Weather Roundup
Issued by NWS

Home | Current Version | Previous Version | Text Only | Print | Product List | Glossary Off
Versions: 1 2 3 4 5 6 7 8 9 10 11 12 13 14 15 16 17 18 19 20 21 22 23 24 25 26 27 28 29 30 31 32 33 34 35 36 37 38 39 40 41 42 43 44 45 46 47 48 49 50

000
ASUS43 KOAX 242002
RWRNE

WEATHER ROUNDUP FOR NEBRASKA
NATIONAL WEATHER SERVICE OMAHA NE
300 PM CDT FRI MAR 24 2017

NOTES: SATELLITE DATA IS BEING USED TO AUGMENT CLOUD COVER ABOVE
       12000 FEET.
       "FAIR" INDICATES FEW OR NO CLOUDS BELOW 12,000 FEET WITH NO
       SIGNIFICANT WEATHER AND/OR OBSTRUCTIONS TO VISIBILITY.

  * THESE STATIONS DO NOT REPORT WEATHER SUCH AS RAIN...SNOW OR FOG.

NEZ001>004-019>022-054>056-242100-
NEBRASKA PANHANDLE

CITY           SKY/WX    TMP DP  RH WIND       PRES   REMARKS
SCOTTSBLUFF    MOSUNNY   59  31  34 NE16G26   30.10F
CHADRON        PTSUNNY   57  36  45 NE9       30.09F
KIMBALL        MOSUNNY   53  35  51 NE16G26   30.10F
SIDNEY         PTSUNNY   51  35  54 N22G30    30.08F
$$

NEZ057>060-069>072-079>082-242100-
SOUTHWEST NEBRASKA

CITY           SKY/WX    TMP DP  RH WIND       PRES   REMARKS
NORTH PLATTE   CLOUDY    46  39  76 NE29G43   29.98R
IMPERIAL       LGT RAIN  43  39  86 N21G28    30.03R
LEXINGTON      LGT RAIN  40  38  91 N16       29.99R WCI  32
MCCOOK         LGT RAIN  41  41 100 N15       29.99R FOG
OGALLALA       CLOUDY    47  39  73 N23G30    30.05S
$$

NEZ005>010-023>029-035>040-094-242100-
NORTH CENTRAL NEBRASKA

CITY           SKY/WX    TMP DP  RH WIND       PRES   REMARKS
VALENTINE      MOSUNNY   57  33  40 NE23G29   30.06F
AINSWORTH      CLOUDY    49  39  68 NE16G22   30.06F
BROKEN BOW     LGT RAIN  42  39  89 N23G33    29.97F
O`NEILL        DRIZZLE   41  39  93 N16       30.05F
ORD            CLOUDY    40  36  86 N20G26    29.99F WCI  30
THEDFORD       CLOUDY    48  38  68 N20G26    30.05S
$$

NEZ041-046>049-061>064-073>077-083>087-242100-
SOUTH CENTRAL NEBRASKA

CITY           SKY/WX    TMP DP  RH WIND       PRES   REMARKS
GRAND ISLAND   LGT RAIN  39  39 100 N21       29.97S FOG     WCI  29
AURORA         CLOUDY    40  39  95 N16G23    29.95S FOG     WCI  32
HASTINGS       CLOUDY    41  38  89 N21G29    29.94R FOG
HEBRON         CLOUDY    48  43  83 NE21G28   29.89R
HOLDREGE       CLOUDY    41  39  92 N18       29.94S
KEARNEY *      CLOUDY    39  36  87 N22G28    29.95F WCI  29
YORK           CLOUDY    41  41 100 N23G31    29.93F
$$

NEZ011>018-030>034-042>045-242100-
NORTHEAST NEBRASKA

CITY           SKY/WX    TMP DP  RH WIND       PRES   REMARKS
NORFOLK        CLOUDY    40  37  89 N18       30.00S WCI  31
ALBION         CLOUDY    41  37  86 N17G25    29.99F
BLAIR          CLOUDY    45  43  94 N20G26    29.91F FOG
FREMONT        CLOUDY    43  42  97 N12G18    29.96F FOG
TEKAMAH        CLOUDY    44  41  89 N16       29.98S
WAYNE          CLOUDY    40  40  97 N15       30.02R WCI  32
$$

NEZ050>053-065>068-078-088>093-242100-
SOUTHEAST NEBRASKA

CITY           SKY/WX    TMP DP  RH WIND       PRES   REMARKS
LINCOLN        CLOUDY    46  42  86 NE25      29.93F
OMAHA EPPLEY   CLOUDY    47  42  83 N15       29.93F
BEATRICE       CLOUDY    48  46  91 NE17G26   29.87R
FALLS CITY     CLOUDY    64  54  69 SE8       29.82F
NEBRASKA CITY  CLOUDY    52  47  83 N18G28    29.87S
PLATTSMOUTH    CLOUDY    48  42  81 N16       29.91S
$$

NEZ044-045-051>053-067-242100-
OMAHA AREA

CITY           SKY/WX    TMP DP  RH WIND       PRES   REMARKS
OMAHA EPPLEY   CLOUDY    47  42  83 N15       29.93F
BLAIR          CLOUDY    45  43  94 N20G26    29.91F FOG
FREMONT        CLOUDY    43  42  97 N12G18    29.96F FOG
MILLARD        CLOUDY    48  45  88 N5G17     29.93F
OFFUTT AFB     CLOUDY    48  44  85 N15       29.91F
PLATTSMOUTH    CLOUDY    48  42  81 N16       29.91S
WAHOO          CLOUDY    44  42  92 N22       29.93F
$$




USA.gov is the U.S. government's official web portal to all federal, state and local government web resources and services.